Regional Weather Roundup
Issued by NWS

Home | Current Version | Previous Version | Text Only | Print | Product List | Glossary Off
Versions: 1 2 3 4 5 6 7 8 9 10 11 12 13 14 15 16 17 18 19 20 21 22 23 24 25 26 27 28 29 30 31 32 33 34 35 36 37 38 39 40 41 42 43 44 45 46 47 48 49 50

000
ASUS45 KABQ 300610
RWRNM
WEATHER ROUNDUP FOR NEW MEXICO
NATIONAL WEATHER SERVICE ALBUQUERQUE NM
1200 AM MDT WED JUL 30 2014

NOTE: "FAIR" MEANS FEW OR NO CLOUDS BELOW 12,000 FEET AGL WITH NO
       SIGNIFICANT WEATHER OR OBSTRUCTIONS TO VISION.

      THIS PRODUCT IS RELEASED AS TWO VERSIONS.  ONE VERSION NEAR
      THE TOP OF THE HOUR CONTAINING PRELIMINARY DATA FROM ALBUQUERQUE
      AND OTHER STATIONS.  A FINAL VERSION WITH ADDITIONAL DATA IS
      ISSUED ABOUT 10 MINUTES AFTER THE HOUR.

NMZ501-503-504-510>518-300700-
NORTHWEST PLATEAU/NORTHCENTRAL MOUNTAINS

CITY           SKY/WX    TMP DP  RH WIND       PRES   REMARKS
FARMINGTON     PTCLDY    73  50  44 N10       30.17S
6HR MIN TEMP:  70; 6HR MAX TEMP:  87; 6HR PCP: TRACE;

LOS ALAMOS     CLOUDY    62  56  81 W6        30.35F
SANTA FE       LGT RAIN  63  59  87 E12       30.29F
6HR MIN TEMP:  63; 6HR MAX TEMP:  74; 6HR PCP:  0.01;

TAOS             N/A     55  54  94 CALM      30.34S
ANGEL FIRE     FAIR      53  51  95 CALM      30.42S

$$
NMZ402-403-502-505>509-300700-
WESTCENTRAL MOUNTAINS/SOUTHWEST MOUNTAINS

CITY           SKY/WX    TMP DP  RH WIND       PRES   REMARKS
GALLUP         CLOUDY    71  50  47 N6        30.30R
6HR MIN TEMP:  66; 6HR MAX TEMP:  84; 6HR PCP:  0.01;

SILVER CITY    MOCLDY    66  63  88 N7        30.26S

$$
NMZ407-409-411-412-300700-
SOUTHERN DESERTS

CITY           SKY/WX    TMP DP  RH WIND       PRES   REMARKS
LORDSBURG      FAIR      73  55  53 SE3       30.15F
DEMING         CLOUDY    74  66  76 W5        30.15F
6HR MIN TEMP:  74; 6HR MAX TEMP:  90; 6HR PCP:  0.09;

LAS CRUCES     MOCLDY    75  63  65 CALM      30.16F
HOLLOMAN AFB   PTCLDY    75  66  73 VRB5      30.12R
ALAMOGORDO     PTCLDY    75  66  73 N3        30.14S
T OR C         PTCLDY    69  64  84 NW5       30.18S
6HR MIN TEMP:  69; 6HR MAX TEMP:  75;


$$
NMZ519>523-300700-
CENTRAL VALLEYS/CENTRAL HIGHLANDS

CITY           SKY/WX    TMP DP  RH WIND       PRES   REMARKS
ALBUQUERQUE    CLOUDY    69  59  70 SE8       30.22F
6HR MIN TEMP:  67; 6HR MAX TEMP:  76; 6HR PCP:  0.27;

DOUBLE EAGLE   CLOUDY    65  60  84 NW8       30.29R
MORIARTY ARPT  FAIR      68  54  60 W9G18     30.29F
6HR MIN TEMP:  61; 6HR MAX TEMP:  68; 6HR PCP:  0.01;

CLINES CORNERS CLOUDY    62  56  80 W17       30.33R
6HR MIN TEMP:  61; 6HR MAX TEMP:  67;

BELEN          FAIR      68  62  83 E10       30.22F
6HR MIN TEMP:  64; 6HR MAX TEMP:  83; 6HR PCP:  0.84;

SOCORRO        FAIR      69  59  69 CALM      30.19S
6HR MIN TEMP:  69; 6HR MAX TEMP:  82;


$$
NMZ524>526-539-540-300700-
SOUTHCENTRAL MOUNTAINS

CITY           SKY/WX    TMP DP  RH WIND       PRES   REMARKS
RUIDOSO        MOCLDY    63  57  82 W5        30.35S

$$
NMZ527>531-300700-
NORTHEAST HIGHLANDS/NORTHEAST PLAINS

CITY           SKY/WX    TMP DP  RH WIND       PRES   REMARKS
LAS VEGAS      CLOUDY    59  52  77 W8        30.31S
6HR MIN TEMP:  58; 6HR MAX TEMP:  67;

RATON          MOCLDY    61  58  90 N7        30.23F
6HR MIN TEMP:  61; 6HR MAX TEMP:  69; 6HR PCP:  0.04;

CLAYTON        CLOUDY    69  64  84 S13       30.15F
6HR MIN TEMP:  69; 6HR MAX TEMP:  79; 6HR PCP:  0.02;


$$
NMZ532>537-300700-
EASTCENTRAL PLAINS

CITY           SKY/WX    TMP DP  RH WIND       PRES   REMARKS
TUCUMCARI      CLOUDY    73  65  75 S14       30.13S
6HR MIN TEMP:  72; 6HR MAX TEMP:  81; 6HR PCP: TRACE;

CANNON AFB     PTCLDY    68  64  88 SE5       30.16F
6HR MIN TEMP:  67; 6HR MAX TEMP:  77;

CLOVIS AIRPORT NOT AVBL

$$
NMZ028-029-538-300700-
SOUTHEAST PLAINS

CITY           SKY/WX    TMP DP  RH WIND       PRES   REMARKS
ROSWELL        MOCLDY    74  67  78 N8        30.10S
6HR MIN TEMP:  74; 6HR MAX TEMP:  80;

ARTESIA        MOCLDY    79  63  57 SE6       30.08F
CARLSBAD       MOCLDY    85  49  28 S8        30.05F
6HR MIN TEMP:  83; 6HR MAX TEMP:  94;

HOBBS          CLOUDY    73  63  68 E10       30.13F


$$


USA.gov is the U.S. government's official web portal to all federal, state and local government web resources and services.